User: anonymous   Login
Location: Unspecified
(0.0000°N, 0.0000°E)
Time: 00:47:36
(UTC+00:00)
Language:

AEROCUBE 6B - Orbit

View from above orbital plane
View from above orbital plane
View from above satellite
View from above satellite

Ground track
Ground track

The orbit data is extracted from the following two-line orbital elements,

1 40046U 14033AN  21023.87062386  .00000327  00000-0  53811-4 0  9997
2 40046  97.6995 240.7448 0056842 356.8328   3.2514 14.75728795354990
Epoch (UTC): 23 January 2021 20:53:41
Eccentricity: 0.0056842
inclination: 97.6995°
perigee height: 603 km
apogee height: 683 km
right ascension of ascending node: 240.7448°
argument of perigee: 356.8328°
revolutions per day: 14.75728795
mean anomaly at epoch: 3.2514°
orbit number at epoch: 35499

The dashed part of the orbit path shows where the satellite is in the earth's shadow,  

DLR